Location: B�hl
(48.6968°N, 8.1352°E)
Time: 01:46:54
(UTC+00:00)

Helios 1A Rocket - Pass Details

Date: 08 March 2021
Orbit: 563 x 585 km, 98.3° (Epoch: 17 April)

Event Time Altitude Azimuth Distance (km) Brightness Sun altitude
Rises 17:54:08 0° 147° (SSE) 2,761 6.1 -6.1°
Reaches altitude 10° 17:56:20 10° 140° (SE) 1,865 5.2 -6.4°
Maximum altitude 18:00:09 43° 69° (ENE) 808 3.3 -7.1°
Drops below altitude 10° 18:03:59 10° 358° (N) 1,872 5.6 -7.7°
Sets 18:06:12 0° 352° (N) 2,772 6.5 -8.1°
